Weather Roundup
Issued by NWS Chicago, IL

Home | Current Version | Previous Version | Text Only | Print | Product List | Glossary Off
Versions: 1 2 3 4 5 6 7 8 9 10 11 12 13 14 15 16 17 18 19 20 21 22 23 24 25 26 27 28 29 30 31 32 33 34 35 36 37 38 39 40 41 42 43 44 45 46 47 48 49 50

000
NZUS59 KLOT 242202
HRRLOT

CHICAGO AREA WEATHER ROUNDUP
NATIONAL WEATHER SERVICE CHICAGO/ROMEOVILLE IL
500 PM CDT SUN MAY 24 2015

NOTE: "FAIR" INDICATES FEW OR NO CLOUDS BELOW 12,000 FEET WITH NO
SIGNIFICANT WEATHER AND/OR OBSTRUCTIONS TO VISIBILITY.

* THESE STATIONS ARE NOT UNDER NWS QUALITY CONTROL. THEY ALSO MAY NOT
  REPORT WEATHER SUCH AS PRECIPITATION OR FOG.

ILZ005-006-012>014-019>023-242300-
NORTHEAST ILLINOIS

CITY           SKY/WX    TMP DP  RH WIND       PRES   REMARKS
OHARE          LGT RAIN  64  59  83 E6        30.01F
MIDWAY         LGT RAIN  65  61  87 N5        30.02R FOG
AURORA         CLOUDY    72  66  81 E14       29.96F
WAUKEGAN       LGT RAIN  56  53  90 CALM      30.03R FOG
DUPAGE AIRPORT CLOUDY    66  62  87 E12       29.98F THUNDER FOG
WHEELING       LGT RAIN  61  57  87 NE3       30.04R FOG
NORTHERLY IS     N/A     60  54  80 N3          N/A
$$

WIZ051-052-058>065-066-070>072-242300-
SOUTHEAST WISCONSIN

CITY           SKY/WX    TMP DP  RH WIND       PRES   REMARKS
MILWAUKEE      LGT RAIN  52  48  86 NE5       30.05S FOG
KENOSHA*       LGT RAIN  58  53  84 E3        30.04S
RACINE*        LGT RAIN  56  49  77 VRB6      30.06S
WAUKESHA       LGT RAIN  54  52  94 E12       30.06S FOG
$$

INZ001>003-010>013-019-020-242300-
NORTHWEST INDIANA

CITY           SKY/WX    TMP DP  RH WIND       PRES   REMARKS
GARY*          LGT RAIN  73  66  78 SW5       29.99S
MICHIGAN CITY* NOT AVBL
RENSSELAER*    NOT AVBL
$$

LMZ740>746-242300-
SOUTHERN LAKE MICHIGAN

STATION/POSITION TIME  SKY/WX   TEMP WIND        PRES    VSBY
                                AIR  DIR/SP/G
                 (UTC)          (F)  (DEG/KT/KT) (MB)    (MI)
HARRISON CRIB    2100            57   80/ 18/ 21   N/A
BURNHAM HARBOR   2200            59  350/  2/ 16   N/A
CALUMET HARBOR   2100            61   70/  6/ 10   N/A
BURNS HARBOR     2100            82  160/  7/ 16 1015.9F
MICHIGAN CITY    2100            80  120/ 14/ 16   N/A
$$

ABBREVIATIONS USED IN REMARKS
   TC - TEMPERATURE IN CELSIUS
  WCI - WIND CHILL INDEX
   HX - HEAT INDEX
  VSB - VISIBILITY
$$


USA.gov is the U.S. government's official web portal to all federal, state and local government web resources and services.